[[{"header":{"parameterUnit":"m.s-1","parameterCategory":1,"la1":30.2991,"la2":30.254,"lo1":-89.0895,"lo2":-89.0444,"dy":0.0017,"dx":0.0017,"nx":28,"ny":28,"refTime":"2025-01-27T03:00:00:Z","depth":0,"parameterNumber":2,"parameterNumberName":"U-component_of_WINDS"},"data":[0,0,0,0,0,0,0,0,0,0,0,0,0,0,0,0,0,0,0,0,0,0,0,0,0,0,0,0,0,0,0,0,0,0,0,0,0,0,0,0,0,0,0,0,0,0,0,0,0,0,0,0,0,0,0,0,0,0,1.3495,1.3496,0,1.3549,1.355,1.355,1.3547,1.3546,1.3546,1.3545,1.3603,1.3605,1.3608,0,0,0,0,0,0,0,0,0,0,0,0,0,1.3394,1.3396,1.3495,1.3496,1.3497,1.3549,1.355,1.3551,1.3547,1.3546,1.3545,1.3544,1.3602,1.3605,1.3608,0,0,0,0,0,0,0,0,0,0,0,0,0,1.3442,1.3397,1.3495,1.3501,1.3502,1.3549,1.355,1.3551,1.3547,1.3546,1.3545,1.3544,1.3602,1.3605,1.3608,1.3653,0,0,1.3619,1.362,0,0,0,0,0,0,0,0,1.344,1.3446,1.35,1.3501,1.3502,1.354,1.3536,1.3585,1.3548,1.353,1.3545,1.3543,1.3583,1.3588,1.3601,1.3656,1.3659,1.3619,1.3621,1.3623,1.3624,0,0,0,0,0,0,0,1.3436,1.3444,1.3517,1.3501,1.3502,1.3503,1.3508,1.3545,1.3563,1.3532,1.3532,1.3538,1.3584,1.3598,1.3602,1.366,1.3619,1.3622,1.3624,1.3626,1.3758,1.376,0,0,0,0,0,0,1.3431,1.3441,1.3515,1.3518,1.3467,1.3506,1.3512,1.3529,1.3563,1.3566,1.3539,1.3538,1.3592,1.3598,1.3604,1.3662,1.3623,1.3626,1.3628,1.3757,1.3759,1.376,0,0,0,0,0,0,1.3429,1.3438,1.3513,1.348,1.3489,1.3509,1.3528,1.3531,1.3545,1.3568,1.3572,1.355,1.3592,1.36,1.3642,1.3664,1.3627,1.3631,1.3755,1.3757,1.3759,1.3776,0,0,0,0,0,0,1.3426,1.3437,1.3453,1.348,1.3491,1.3548,1.353,1.3533,1.355,1.3549,1.3579,1.3583,1.3591,1.3637,1.3645,1.3668,1.3633,1.3753,1.3756,1.3759,1.3773,1.3778,1.3782,0,0,0,0,0,1.3422,1.3455,1.3454,1.3463,1.3511,1.3549,1.3555,1.3564,1.3552,1.3569,1.3585,1.3582,1.366,1.3641,1.3651,1.3675,1.3752,1.3755,1.3759,1.3771,1.3777,1.3782,0,0,0,0,0,0,1.343,1.3459,1.3457,1.35,1.3522,1.3548,1.357,1.3569,1.3596,1.3594,1.3605,1.3612,1.3655,1.3669,1.3647,1.3722,1.3705,1.371,1.3711,1.3717,1.3721,1.3717,1.3636,0,0,0,0,0,1.3437,1.3464,1.3488,1.3523,1.3534,1.355,1.3567,1.3572,1.3596,1.3605,1.3624,1.3648,1.3679,1.3698,1.3727,1.3775,1.3783,1.3797,1.3801,1.3805,1.381,1.3839,1.3846,1.3771,1.3771,1.3771,0,0,1.3451,1.347,1.3486,1.3525,1.3543,1.3573,1.3558,1.3589,1.3612,1.361,1.3652,1.3666,1.3695,1.3741,1.3762,1.3754,1.3833,1.3809,1.3812,1.3815,1.3844,1.3851,1.3857,1.3773,1.3773,1.3772,0,0,1.3492,1.3508,1.354,1.3559,1.3586,1.3597,1.3605,1.3632,1.3642,1.3683,1.3683,1.3712,1.3763,1.3784,1.3801,1.3854,1.3853,1.3863,1.3887,1.3915,1.3921,1.3927,1.3948,1.3955,1.3867,1.3867,1.3868,0,1.3506,1.3549,1.3557,1.3589,1.3608,1.3607,1.3642,1.366,1.3695,1.3709,1.3699,1.3766,1.3784,1.3837,1.385,1.3863,1.3875,1.386,1.392,1.3925,1.393,1.3951,1.3958,1.3869,1.3869,1.3868,1.3868,0,1.3567,1.3597,1.362,1.3655,1.3676,1.3709,1.3724,1.3744,1.3748,1.3761,1.3805,1.3828,1.3863,1.3876,1.3879,1.393,1.3924,1.3917,1.39,1.3939,1.3958,1.3966,1.387,1.387,1.387,1.3869,0,0,1.3613,1.3653,1.3662,1.3679,1.371,1.3735,1.3769,1.3803,1.3821,1.3847,1.3878,1.3922,1.3917,1.3937,1.3943,1.3968,1.4012,1.3958,1.3959,1.3969,1.4072,1.4078,1.4087,1.4011,1.4013,1.4014,1.407,0,1.3659,1.3719,1.3728,1.3781,1.3811,1.3813,1.3843,1.3867,1.388,1.3909,1.3925,1.3957,1.3946,1.3958,1.3983,1.4001,1.4033,1.3997,1.4042,1.4044,1.4036,1.4097,1.4103,1.4155,1.4078,1.4079,1.408,0,1.372,1.3747,1.3803,1.3833,1.3846,1.3873,1.3906,1.3933,1.3961,1.397,1.3993,1.3997,1.4036,1.4017,1.4072,1.4047,1.4067,1.4079,1.4081,1.4087,1.4065,1.4106,1.4171,1.418,1.4091,1.409,1.409,0,1.3751,1.3801,1.3842,1.3856,1.3892,1.3911,1.3927,1.3954,1.3975,1.4005,1.4019,1.4053,1.4072,1.4099,1.4114,1.4098,1.4169,1.415,1.4179,1.4179,1.4194,1.4193,1.4266,1.4204,1.4204,1.4204,1.4204,0,1.3801,1.3836,1.3857,1.3882,1.3923,1.3934,1.3974,1.399,1.4014,1.4045,1.4048,1.4077,1.4093,1.4125,1.4137,1.4183,1.4191,1.42,1.4203,1.4201,1.42,1.4214,1.4212,1.4206,1.4206,1.4205,1.4205,0,1.3843,1.3857,1.3903,1.3933,1.3942,1.397,1.3997,1.4023,1.4037,1.4076,1.4085,1.4108,1.4146,1.4163,1.421,1.4219,1.4271,1.427,1.4261,1.4263,1.4291,1.4289,1.4377,1.439,1.4318,1.4319,1.4319,0,1.3874,1.3901,1.3935,1.3955,1.3972,1.4004,1.4025,1.4039,1.4061,1.4097,1.412,1.4158,1.4189,1.425,1.4272,1.4309,1.4311,1.4339,1.4316,1.4314,1.4314,1.4313,1.4317,1.4343,1.4344,1.4345,1.4345,0,1.393,1.3937,1.3967,1.4001,1.4026,1.4054,1.4081,1.4097,1.4115,1.4141,1.418,1.4204,1.4253,1.4292,1.433,1.4349,1.4352,1.4352,1.4361,1.436,1.4354,1.436,1.4274,1.435,1.435,1.4349,1.4349,1.4349,1.3969,1.3994,1.4023,1.4057,1.4079,1.4105,1.4131,1.4149,1.4181,1.4221,1.4228,1.427,1.4301,1.4353,1.4374,1.4409,1.4402,1.4414,1.4418,1.4421,1.4424,1.4347,1.4415,1.4415,1.4415,1.4415,1.4415,0,1.4027,1.4046,1.4077,1.4115,1.4143,1.4142,1.4172,1.4196,1.4233,1.4261,1.4292,1.4338,1.4377,1.4403,1.4442,1.4465,1.4468,1.4476,1.4475,1.448,1.4426,1.4416,1.4473,1.4473,1.4473,1.4473,1.4473,1.4473,1.406,1.4104,1.4114,1.417,1.4189,1.4229,1.4248,1.4272,1.4295,1.4346,1.4378,1.4394,1.4423,1.4465,1.4501,1.4508,1.4524,1.4532,1.4539,1.4489,1.4483,1.4477,1.4467,1.4535,1.4535,1.459,1.459,1.4591]},{"header":{"parameterUnit":"m.s-1","parameterCategory":1,"la1":30.2991,"la2":30.254,"lo1":-89.0895,"lo2":-89.0444,"dy":0.0017,"dx":0.0017,"nx":28,"ny":28,"refTime":"2025-01-27T03:00:00:Z","depth":0,"parameterNumber":3,"parameterNumberName":"V-component_of_WINDS"},"data":[0,0,0,0,0,0,0,0,0,0,0,0,0,0,0,0,0,0,0,0,0,0,0,0,0,0,0,0,0,0,0,0,0,0,0,0,0,0,0,0,0,0,0,0,0,0,0,0,0,0,0,0,0,0,0,0,0,0,-2.2089,-2.2089,0,-2.2077,-2.2076,-2.2076,-2.2094,-2.2094,-2.2095,-2.2096,-2.2079,-2.2078,-2.2077,0,0,0,0,0,0,0,0,0,0,0,0,0,-2.2126,-2.2125,-2.2089,-2.2089,-2.2089,-2.2077,-2.2076,-2.2076,-2.2094,-2.2095,-2.2095,-2.2096,-2.2079,-2.2078,-2.2076,0,0,0,0,0,0,0,0,0,0,0,0,0,-2.2111,-2.2125,-2.2089,-2.2096,-2.2097,-2.2077,-2.2076,-2.2076,-2.2094,-2.2095,-2.2095,-2.2096,-2.2079,-2.2078,-2.2076,-2.2047,0,0,-2.2071,-2.2071,0,0,0,0,0,0,0,0,-2.2112,-2.211,-2.2095,-2.2096,-2.2096,-2.2088,-2.2083,-2.2066,-2.2093,-2.2095,-2.2096,-2.2097,-2.2081,-2.2079,-2.2074,-2.2047,-2.2046,-2.2071,-2.207,-2.207,-2.2069,0,0,0,0,0,0,0,-2.2113,-2.211,-2.2084,-2.2095,-2.2096,-2.2099,-2.2098,-2.208,-2.2082,-2.2095,-2.2096,-2.2094,-2.2081,-2.2076,-2.2074,-2.2046,-2.2071,-2.207,-2.2069,-2.2068,-2.1996,-2.1995,0,0,0,0,0,0,-2.2113,-2.2111,-2.2084,-2.2084,-2.2107,-2.2098,-2.2097,-2.2089,-2.2083,-2.2082,-2.2094,-2.2095,-2.2078,-2.2076,-2.2074,-2.2041,-2.207,-2.2068,-2.2067,-2.1997,-2.1996,-2.1994,0,0,0,0,0,0,-2.2114,-2.2111,-2.2085,-2.2098,-2.2095,-2.2096,-2.2088,-2.2089,-2.2084,-2.2082,-2.2082,-2.2088,-2.2079,-2.2076,-2.2055,-2.2041,-2.2068,-2.2066,-2.1998,-2.1996,-2.1995,-2.1974,0,0,0,0,0,0,-2.2115,-2.2111,-2.21,-2.2097,-2.2094,-2.2067,-2.2087,-2.2088,-2.2081,-2.2083,-2.2077,-2.2076,-2.2079,-2.2057,-2.2053,-2.2039,-2.2065,-2.1999,-2.1997,-2.1995,-2.1976,-2.1972,-2.1969,0,0,0,0,0,-2.2116,-2.2094,-2.21,-2.2097,-2.2081,-2.2066,-2.2064,-2.2069,-2.208,-2.2069,-2.2069,-2.2077,-2.2043,-2.2055,-2.205,-2.2035,-2.2,-2.1998,-2.1996,-2.1978,-2.1973,-2.1969,0,0,0,0,0,0,-2.2093,-2.2093,-2.21,-2.2076,-2.2071,-2.2069,-2.2055,-2.2063,-2.2054,-2.2056,-2.2061,-2.2059,-2.2037,-2.2034,-2.2047,-2.2008,-2.2023,-2.202,-2.2011,-2.2007,-2.2003,-2.2004,-2.2064,0,0,0,0,0,-2.2085,-2.2074,-2.2075,-2.2053,-2.2051,-2.2054,-2.2047,-2.2052,-2.2046,-2.2044,-2.2041,-2.2034,-2.2023,-2.2014,-2.2003,-2.1976,-2.1975,-2.1964,-2.196,-2.1957,-2.1954,-2.1942,-2.1937,-2.1987,-2.1987,-2.1987,0,0,-2.2069,-2.2068,-2.206,-2.2049,-2.2045,-2.2033,-2.2051,-2.2037,-2.2028,-2.2041,-2.2022,-2.202,-2.2013,-2.1989,-2.1978,-2.1986,-2.1941,-2.1954,-2.1952,-2.1951,-2.1939,-2.1934,-2.193,-2.1986,-2.1986,-2.1986,0,0,-2.2033,-2.2031,-2.2014,-2.2011,-2.2006,-2.2009,-2.2005,-2.2002,-2.2002,-2.1983,-2.1993,-2.1982,-2.196,-2.1956,-2.1951,-2.1915,-2.1923,-2.1911,-2.1892,-2.188,-2.1876,-2.1872,-2.1861,-2.1857,-2.1909,-2.1909,-2.1909,0,-2.2012,-2.1996,-2.2003,-2.199,-2.1985,-2.1998,-2.1981,-2.1977,-2.1968,-2.1964,-2.1973,-2.1949,-2.1945,-2.1921,-2.1913,-2.1908,-2.1904,-2.1912,-2.1876,-2.1873,-2.1869,-2.1859,-2.1854,-2.1907,-2.1907,-2.1908,-2.1908,0,-2.1971,-2.196,-2.1946,-2.1941,-2.1934,-2.1918,-2.1923,-2.1916,-2.1921,-2.1923,-2.1904,-2.19,-2.1889,-2.1884,-2.1888,-2.1861,-2.1866,-2.1875,-2.1891,-2.1863,-2.1853,-2.1849,-2.1905,-2.1906,-2.1906,-2.1907,0,0,-2.1919,-2.192,-2.1915,-2.1913,-2.191,-2.1901,-2.1886,-2.1877,-2.1871,-2.1865,-2.1853,-2.1837,-2.1846,-2.184,-2.1844,-2.1833,-2.1807,-2.1843,-2.1843,-2.1838,-2.1779,-2.1773,-2.1768,-2.1812,-2.1812,-2.1811,-2.178,0,-2.1884,-2.1861,-2.1868,-2.1844,-2.1834,-2.1847,-2.1835,-2.1831,-2.1833,-2.1824,-2.1825,-2.1813,-2.1826,-2.1823,-2.1812,-2.1812,-2.1796,-2.1815,-2.1801,-2.1801,-2.1803,-2.1762,-2.1755,-2.1726,-2.1776,-2.1775,-2.1775,0,-2.184,-2.1835,-2.1811,-2.1812,-2.1808,-2.1796,-2.179,-2.1782,-2.1778,-2.178,-2.1775,-2.1782,-2.1767,-2.1783,-2.1763,-2.1776,-2.1771,-2.1771,-2.177,-2.1769,-2.1786,-2.1761,-2.1717,-2.1713,-2.1768,-2.1769,-2.1769,0,-2.1806,-2.1793,-2.1777,-2.1775,-2.1775,-2.1768,-2.1767,-2.1765,-2.176,-2.1754,-2.1751,-2.1743,-2.1738,-2.1732,-2.1736,-2.1747,-2.1717,-2.1732,-2.1718,-2.1718,-2.1711,-2.1711,-2.1666,-2.1706,-2.1706,-2.1706,-2.1706,0,-2.1767,-2.1751,-2.1762,-2.1752,-2.1736,-2.1745,-2.1728,-2.1729,-2.1728,-2.1718,-2.1728,-2.1719,-2.1725,-2.1717,-2.172,-2.1704,-2.1701,-2.1703,-2.1704,-2.1702,-2.1702,-2.1699,-2.1701,-2.1705,-2.1705,-2.1706,-2.1706,0,-2.1726,-2.1732,-2.1716,-2.1719,-2.1719,-2.1707,-2.1709,-2.17,-2.1703,-2.1691,-2.1689,-2.1693,-2.1684,-2.1688,-2.1677,-2.1679,-2.1659,-2.1662,-2.1661,-2.1662,-2.1648,-2.165,-2.1599,-2.1594,-2.1637,-2.1637,-2.1636,0,-2.17,-2.169,-2.1692,-2.1687,-2.1687,-2.1679,-2.1675,-2.1683,-2.1678,-2.1675,-2.1667,-2.1658,-2.1652,-2.1636,-2.1638,-2.163,-2.1634,-2.1617,-2.1632,-2.1632,-2.1635,-2.1636,-2.1635,-2.1614,-2.1613,-2.1613,-2.1612,0,-2.1655,-2.166,-2.1654,-2.165,-2.1645,-2.1642,-2.1639,-2.1635,-2.1643,-2.1637,-2.1629,-2.1624,-2.1615,-2.1607,-2.16,-2.1599,-2.1607,-2.1608,-2.1604,-2.1602,-2.1602,-2.1603,-2.1653,-2.1609,-2.1609,-2.1609,-2.1609,-2.161,-2.1622,-2.1614,-2.1615,-2.1609,-2.1608,-2.1606,-2.1599,-2.1602,-2.1596,-2.159,-2.1595,-2.1585,-2.1584,-2.1576,-2.1574,-2.1566,-2.1573,-2.1568,-2.1566,-2.1565,-2.1564,-2.1604,-2.1565,-2.1565,-2.1565,-2.1565,-2.1565,0,-2.1579,-2.1581,-2.1575,-2.1573,-2.1568,-2.1578,-2.1576,-2.1571,-2.1563,-2.1562,-2.1556,-2.1547,-2.154,-2.1542,-2.1536,-2.1529,-2.1533,-2.1527,-2.1528,-2.1528,-2.1558,-2.1562,-2.1524,-2.1524,-2.1524,-2.1524,-2.1524,-2.1524,-2.1556,-2.1543,-2.1548,-2.1535,-2.1537,-2.1529,-2.1527,-2.1525,-2.1525,-2.1515,-2.151,-2.1512,-2.1512,-2.1506,-2.15,-2.1501,-2.1498,-2.1491,-2.1493,-2.1521,-2.1525,-2.1529,-2.1533,-2.149,-2.149,-2.1464,-2.1464,-2.1464]}]]